Overview Statistics Trail Chart Weather Telemetry Raw packets
 

This is the latest recevied weather packets stored in our database for station/object VE6HFD-WX. If no packets are shown the sender has not sent any weather packets the latest 10 day(s).

<< 14 15 16 17 18 19 20 >>
Time Temp. Humidity Pressure Rain* Wind** Luminosity Snow
1788514300 8.33° C 82% 1005.1 hPa 0 mm - - -
1788513970 7.78° C 80% 1005 hPa 0 mm - - -
1788513670 7.78° C 79% 1004.9 hPa 0 mm - - -
1788513348 7.22° C 80% 1004.8 hPa 0 mm - - -
1788513010 7.22° C 75% 1004.8 hPa 0 mm - - -
1788512710 7.78° C 76% 1004.8 hPa 0 mm - - -
1788512410 7.78° C 76% 1004.7 hPa 0 mm - - -
1788512080 7.22° C 79% 1004.7 hPa 0 mm - - -
1788511780 6.67° C 73% 1004.5 hPa 0 mm - - -
1788511480 7.78° C 69% 1004.5 hPa 0 mm - - -
1788511180 8.89° C 70% 1004.3 hPa 0 mm - - -
1788510850 8.89° C 70% 1004.2 hPa 0 mm - - -
1788510520 9.44° C 68% 1004.3 hPa 0 mm - - -
1788510220 9.44° C 66% 1004.1 hPa 0 mm - - -
1788509920 10° C 65% 1004.1 hPa 0 mm - - -
1788509590 10° C 65% 1004 hPa 0 mm - - -
1788509290 10° C 65% 1004 hPa 0 mm - - -
1788508990 9.44° C 67% 1004.1 hPa 0 mm - - -
1788508660 9.44° C 67% 1004.1 hPa 0 mm - - -
1788508330 9.44° C 67% 1004.1 hPa 0 mm - - -
1788508030 9.44° C 66% 1003.9 hPa 0 mm - - -
1788507730 9.44° C 67% 1003.8 hPa 0 mm - - -
1788507430 9.44° C 70% 1003.8 hPa 0 mm - - -
1788507100 7.78° C 75% 1003.8 hPa 0 mm - - -
1788506776 7.78° C 74% 1004 hPa 0 mm - - -

* Rain latest hour (hover to see other rain measurements)
** Current wind speed in m/s (hover to see current wind gust speed)